owner,sensor,date,latitude,longitude,vertical_datum,sea_water_practical_salinity,qcFlag 
WAVCIS,ioos:station:WAVCIS:CSI16:1,2010-08-01T00:00:00Z,29.4012,-89.0355,1.0,20.789,11111222 
WAVCIS,ioos:station:WAVCIS:CSI16:1,2010-08-01T00:15:00Z,29.4012,-89.0355,1.0,20.753,11111222 
WAVCIS,ioos:station:WAVCIS:CSI16:1,2010-08-01T00:30:00Z,29.4012,-89.0355,1.0,20.882,11111222 
WAVCIS,ioos:station:WAVCIS:CSI16:1,2010-08-01T00:45:00Z,29.4012,-89.0355,1.0,20.891,11111222 
WAVCIS,ioos:station:WAVCIS:CSI16:1,2010-08-01T01:00:00Z,29.4012,-89.0355,1.0,20.931,11111222 
WAVCIS,ioos:station:WAVCIS:CSI16:1,2010-08-01T01:15:00Z,29.4012,-89.0355,1.0,20.991,11111222 
WAVCIS,ioos:station:WAVCIS:CSI16:1,2010-08-01T01:30:00Z,29.4012,-89.0355,1.0,21.022,11111222 
WAVCIS,ioos:station:WAVCIS:CSI16:1,2010-08-01T01:45:00Z,29.4012,-89.0355,1.0,21.011,11111222 
WAVCIS,ioos:station:WAVCIS:CSI16:1,2010-08-01T02:00:00Z,29.4012,-89.0355,1.0,21.035,11111222 
WAVCIS,ioos:station:WAVCIS:CSI16:1,2010-08-01T02:15:00Z,29.4012,-89.0355,1.0,21.051,11111222 
WAVCIS,ioos:station:WAVCIS:CSI16:1,2010-08-01T02:30:00Z,29.4012,-89.0355,1.0,21.101,11111222 
WAVCIS,ioos:station:WAVCIS:CSI16:1,2010-08-01T02:45:00Z,29.4012,-89.0355,1.0,21.138,11111222 
WAVCIS,ioos:station:WAVCIS:CSI16:1,2010-08-01T03:00:00Z,29.4012,-89.0355,1.0,21.119,11111222 
WAVCIS,ioos:station:WAVCIS:CSI16:1,2010-08-01T03:15:00Z,29.4012,-89.0355,1.0,21.172,11111222 
WAVCIS,ioos:station:WAVCIS:CSI16:1,2010-08-01T03:30:00Z,29.4012,-89.0355,1.0,18.86,11111222 
WAVCIS,ioos:station:WAVCIS:CSI16:1,2010-08-01T03:45:00Z,29.4012,-89.0355,1.0,18.639,11111222 
WAVCIS,ioos:station:WAVCIS:CSI16:1,2010-08-01T04:00:00Z,29.4012,-89.0355,1.0,17.942,11111222 
WAVCIS,ioos:station:WAVCIS:CSI16:1,2010-08-01T04:15:00Z,29.4012,-89.0355,1.0,16.357,11111222 
WAVCIS,ioos:station:WAVCIS:CSI16:1,2010-08-01T04:30:00Z,29.4012,-89.0355,1.0,16.908,11111222 
WAVCIS,ioos:station:WAVCIS:CSI16:1,2010-08-01T04:45:00Z,29.4012,-89.0355,1.0,16.636,11111222 
WAVCIS,ioos:station:WAVCIS:CSI16:1,2010-08-01T05:00:00Z,29.4012,-89.0355,1.0,16.223,11111222 
WAVCIS,ioos:station:WAVCIS:CSI16:1,2010-08-01T05:15:00Z,29.4012,-89.0355,1.0,16.436,11111222 
WAVCIS,ioos:station:WAVCIS:CSI16:1,2010-08-01T05:30:00Z,29.4012,-89.0355,1.0,16.744,11111222 
WAVCIS,ioos:station:WAVCIS:CSI16:1,2010-08-01T05:45:00Z,29.4012,-89.0355,1.0,16.788,11111222 
WAVCIS,ioos:station:WAVCIS:CSI16:1,2010-08-01T06:00:00Z,29.4012,-89.0355,1.0,16.764,11111222 
WAVCIS,ioos:station:WAVCIS:CSI16:1,2010-08-01T06:15:00Z,29.4012,-89.0355,1.0,16.994,11111222 
WAVCIS,ioos:station:WAVCIS:CSI16:1,2010-08-01T06:30:00Z,29.4012,-89.0355,1.0,17.173,11111222 
WAVCIS,ioos:station:WAVCIS:CSI16:1,2010-08-01T06:45:00Z,29.4012,-89.0355,1.0,17.813,11111222 
WAVCIS,ioos:station:WAVCIS:CSI16:1,2010-08-01T07:00:00Z,29.4012,-89.0355,1.0,17.325,11111222 
WAVCIS,ioos:station:WAVCIS:CSI16:1,2010-08-01T07:15:00Z,29.4012,-89.0355,1.0,17.323,11111222 
WAVCIS,ioos:station:WAVCIS:CSI16:1,2010-08-01T07:30:00Z,29.4012,-89.0355,1.0,17.377,11111222 
WAVCIS,ioos:station:WAVCIS:CSI16:1,2010-08-01T07:45:00Z,29.4012,-89.0355,1.0,17.07,11111222 
WAVCIS,ioos:station:WAVCIS:CSI16:1,2010-08-01T08:00:00Z,29.4012,-89.0355,1.0,17.657,11111222 
WAVCIS,ioos:station:WAVCIS:CSI16:1,2010-08-01T08:15:00Z,29.4012,-89.0355,1.0,17.581,11111222 
WAVCIS,ioos:station:WAVCIS:CSI16:1,2010-08-01T08:30:00Z,29.4012,-89.0355,1.0,17.104,11111222 
WAVCIS,ioos:station:WAVCIS:CSI16:1,2010-08-01T08:45:00Z,29.4012,-89.0355,1.0,17.135,11111222 
WAVCIS,ioos:station:WAVCIS:CSI16:1,2010-08-01T09:00:00Z,29.4012,-89.0355,1.0,17.526,11111222 
WAVCIS,ioos:station:WAVCIS:CSI16:1,2010-08-01T09:15:00Z,29.4012,-89.0355,1.0,17.78,11111222 
WAVCIS,ioos:station:WAVCIS:CSI16:1,2010-08-01T09:30:00Z,29.4012,-89.0355,1.0,17.531,11111222 
WAVCIS,ioos:station:WAVCIS:CSI16:1,2010-08-01T09:45:00Z,29.4012,-89.0355,1.0,17.575,11111222 
WAVCIS,ioos:station:WAVCIS:CSI16:1,2010-08-01T10:00:00Z,29.4012,-89.0355,1.0,17.663,11111222 
WAVCIS,ioos:station:WAVCIS:CSI16:1,2010-08-01T10:15:00Z,29.4012,-89.0355,1.0,17.855,11111222 
WAVCIS,ioos:station:WAVCIS:CSI16:1,2010-08-01T10:30:00Z,29.4012,-89.0355,1.0,17.816,11111222 
WAVCIS,ioos:station:WAVCIS:CSI16:1,2010-08-01T10:45:00Z,29.4012,-89.0355,1.0,17.991,11111222 
WAVCIS,ioos:station:WAVCIS:CSI16:1,2010-08-01T11:00:00Z,29.4012,-89.0355,1.0,17.956,11111222 
WAVCIS,ioos:station:WAVCIS:CSI16:1,2010-08-01T11:15:00Z,29.4012,-89.0355,1.0,17.742,11111222 
WAVCIS,ioos:station:WAVCIS:CSI16:1,2010-08-01T11:30:00Z,29.4012,-89.0355,1.0,17.726,11111222 
WAVCIS,ioos:station:WAVCIS:CSI16:1,2010-08-01T11:45:00Z,29.4012,-89.0355,1.0,17.699,11111222 
WAVCIS,ioos:station:WAVCIS:CSI16:1,2010-08-01T12:00:00Z,29.4012,-89.0355,1.0,17.135,11111222 
WAVCIS,ioos:station:WAVCIS:CSI16:1,2010-08-01T12:15:00Z,29.4012,-89.0355,1.0,17.277,11111222 
WAVCIS,ioos:station:WAVCIS:CSI16:1,2010-08-01T12:30:00Z,29.4012,-89.0355,1.0,17.246,11111222 
WAVCIS,ioos:station:WAVCIS:CSI16:1,2010-08-01T12:45:00Z,29.4012,-89.0355,1.0,17.265,11111222 
WAVCIS,ioos:station:WAVCIS:CSI16:1,2010-08-01T13:00:00Z,29.4012,-89.0355,1.0,17.56,11111222 
WAVCIS,ioos:station:WAVCIS:CSI16:1,2010-08-01T13:15:00Z,29.4012,-89.0355,1.0,17.652,11111222 
WAVCIS,ioos:station:WAVCIS:CSI16:1,2010-08-01T13:30:00Z,29.4012,-89.0355,1.0,17.767,11111222 
WAVCIS,ioos:station:WAVCIS:CSI16:1,2010-08-01T13:45:00Z,29.4012,-89.0355,1.0,17.635,11111222 
WAVCIS,ioos:station:WAVCIS:CSI16:1,2010-08-01T14:00:00Z,29.4012,-89.0355,1.0,17.767,11111222 
WAVCIS,ioos:station:WAVCIS:CSI16:1,2010-08-01T14:15:00Z,29.4012,-89.0355,1.0,17.905,11111222 
WAVCIS,ioos:station:WAVCIS:CSI16:1,2010-08-01T14:30:00Z,29.4012,-89.0355,1.0,17.927,11111222 
WAVCIS,ioos:station:WAVCIS:CSI16:1,2010-08-01T14:45:00Z,29.4012,-89.0355,1.0,18.21,11111222 
WAVCIS,ioos:station:WAVCIS:CSI16:1,2010-08-01T15:00:00Z,29.4012,-89.0355,1.0,18.383,11111222 
WAVCIS,ioos:station:WAVCIS:CSI16:1,2010-08-01T15:15:00Z,29.4012,-89.0355,1.0,18.448,11111222 
WAVCIS,ioos:station:WAVCIS:CSI16:1,2010-08-01T15:30:00Z,29.4012,-89.0355,1.0,18.506,11111222 
WAVCIS,ioos:station:WAVCIS:CSI16:1,2010-08-01T15:45:00Z,29.4012,-89.0355,1.0,18.644,11111222 
WAVCIS,ioos:station:WAVCIS:CSI16:1,2010-08-01T16:00:00Z,29.4012,-89.0355,1.0,18.706,11111222 
WAVCIS,ioos:station:WAVCIS:CSI16:1,2010-08-01T16:15:00Z,29.4012,-89.0355,1.0,18.954,11111222 
WAVCIS,ioos:station:WAVCIS:CSI16:1,2010-08-01T16:30:00Z,29.4012,-89.0355,1.0,18.988,11111222 
WAVCIS,ioos:station:WAVCIS:CSI16:1,2010-08-01T16:45:00Z,29.4012,-89.0355,1.0,19.122,11111222 
WAVCIS,ioos:station:WAVCIS:CSI16:1,2010-08-01T17:00:00Z,29.4012,-89.0355,1.0,19.356,11111222 
WAVCIS,ioos:station:WAVCIS:CSI16:1,2010-08-01T17:15:00Z,29.4012,-89.0355,1.0,19.636,11111222 
WAVCIS,ioos:station:WAVCIS:CSI16:1,2010-08-01T17:30:00Z,29.4012,-89.0355,1.0,19.645,11111222 
WAVCIS,ioos:station:WAVCIS:CSI16:1,2010-08-01T17:45:00Z,29.4012,-89.0355,1.0,19.729,11111222 
WAVCIS,ioos:station:WAVCIS:CSI16:1,2010-08-01T18:00:00Z,29.4012,-89.0355,1.0,19.831,11111222 
WAVCIS,ioos:station:WAVCIS:CSI16:1,2010-08-01T18:15:00Z,29.4012,-89.0355,1.0,19.978,11111222 
WAVCIS,ioos:station:WAVCIS:CSI16:1,2010-08-01T18:30:00Z,29.4012,-89.0355,1.0,20.174,11111222 
WAVCIS,ioos:station:WAVCIS:CSI16:1,2010-08-01T18:45:00Z,29.4012,-89.0355,1.0,20.389,11111222 
WAVCIS,ioos:station:WAVCIS:CSI16:1,2010-08-01T19:00:00Z,29.4012,-89.0355,1.0,20.581,11111222 
WAVCIS,ioos:station:WAVCIS:CSI16:1,2010-08-01T19:15:00Z,29.4012,-89.0355,1.0,20.858,11111222 
WAVCIS,ioos:station:WAVCIS:CSI16:1,2010-08-01T19:30:00Z,29.4012,-89.0355,1.0,20.965,11111222 
WAVCIS,ioos:station:WAVCIS:CSI16:1,2010-08-01T19:45:00Z,29.4012,-89.0355,1.0,21.116,11111222 
WAVCIS,ioos:station:WAVCIS:CSI16:1,2010-08-01T20:00:00Z,29.4012,-89.0355,1.0,21.245,11111222 
WAVCIS,ioos:station:WAVCIS:CSI16:1,2010-08-01T20:15:00Z,29.4012,-89.0355,1.0,21.347,11111222 
WAVCIS,ioos:station:WAVCIS:CSI16:1,2010-08-01T20:30:00Z,29.4012,-89.0355,1.0,21.706,11111222 
WAVCIS,ioos:station:WAVCIS:CSI16:1,2010-08-01T20:45:00Z,29.4012,-89.0355,1.0,21.6,11111222 
WAVCIS,ioos:station:WAVCIS:CSI16:1,2010-08-01T21:00:00Z,29.4012,-89.0355,1.0,21.837,11111222 
WAVCIS,ioos:station:WAVCIS:CSI16:1,2010-08-01T21:15:00Z,29.4012,-89.0355,1.0,21.79,11111222 
WAVCIS,ioos:station:WAVCIS:CSI16:1,2010-08-01T21:30:00Z,29.4012,-89.0355,1.0,21.749,11111222 
WAVCIS,ioos:station:WAVCIS:CSI16:1,2010-08-01T21:45:00Z,29.4012,-89.0355,1.0,21.795,11111222 
WAVCIS,ioos:station:WAVCIS:CSI16:1,2010-08-01T22:00:00Z,29.4012,-89.0355,1.0,21.796,11111222 
WAVCIS,ioos:station:WAVCIS:CSI16:1,2010-08-01T22:15:00Z,29.4012,-89.0355,1.0,21.838,11111222 
WAVCIS,ioos:station:WAVCIS:CSI16:1,2010-08-01T22:30:00Z,29.4012,-89.0355,1.0,21.821,11111222 
WAVCIS,ioos:station:WAVCIS:CSI16:1,2010-08-01T22:45:00Z,29.4012,-89.0355,1.0,21.629,11111222 
WAVCIS,ioos:station:WAVCIS:CSI16:1,2010-08-01T23:00:00Z,29.4012,-89.0355,1.0,21.303,11111222 
WAVCIS,ioos:station:WAVCIS:CSI16:1,2010-08-01T23:15:00Z,29.4012,-89.0355,1.0,21.144,11111222 
WAVCIS,ioos:station:WAVCIS:CSI16:1,2010-08-01T23:30:00Z,29.4012,-89.0355,1.0,20.939,11111222 
WAVCIS,ioos:station:WAVCIS:CSI16:1,2010-08-01T23:45:00Z,29.4012,-89.0355,1.0,20.847,11111222 
WAVCIS,ioos:station:WAVCIS:CSI16:1,2010-08-02T00:00:00Z,29.4012,-89.0355,1.0,20.77,11111222 
WAVCIS,ioos:station:WAVCIS:CSI16:1,2010-08-02T00:15:00Z,29.4012,-89.0355,1.0,20.815,11111222 
WAVCIS,ioos:station:WAVCIS:CSI16:1,2010-08-02T00:30:00Z,29.4012,-89.0355,1.0,20.84,11111222 
WAVCIS,ioos:station:WAVCIS:CSI16:1,2010-08-02T00:45:00Z,29.4012,-89.0355,1.0,20.653,11111222 
WAVCIS,ioos:station:WAVCIS:CSI16:1,2010-08-02T01:00:00Z,29.4012,-89.0355,1.0,20.695,11111222 
WAVCIS,ioos:station:WAVCIS:CSI16:1,2010-08-02T01:15:00Z,29.4012,-89.0355,1.0,20.63,11111222 
WAVCIS,ioos:station:WAVCIS:CSI16:1,2010-08-02T01:30:00Z,29.4012,-89.0355,1.0,20.491,11111222 
WAVCIS,ioos:station:WAVCIS:CSI16:1,2010-08-02T01:45:00Z,29.4012,-89.0355,1.0,20.354,11111222 
WAVCIS,ioos:station:WAVCIS:CSI16:1,2010-08-02T02:00:00Z,29.4012,-89.0355,1.0,20.104,11111222 
WAVCIS,ioos:station:WAVCIS:CSI16:1,2010-08-02T02:15:00Z,29.4012,-89.0355,1.0,19.919,11111222 
WAVCIS,ioos:station:WAVCIS:CSI16:1,2010-08-02T02:30:00Z,29.4012,-89.0355,1.0,19.191,11111222 
WAVCIS,ioos:station:WAVCIS:CSI16:1,2010-08-02T02:45:00Z,29.4012,-89.0355,1.0,19.179,11111222 
WAVCIS,ioos:station:WAVCIS:CSI16:1,2010-08-02T03:00:00Z,29.4012,-89.0355,1.0,19.146,11111222 
WAVCIS,ioos:station:WAVCIS:CSI16:1,2010-08-02T03:15:00Z,29.4012,-89.0355,1.0,19.202,11111222 
WAVCIS,ioos:station:WAVCIS:CSI16:1,2010-08-02T03:30:00Z,29.4012,-89.0355,1.0,19.142,11111222 
WAVCIS,ioos:station:WAVCIS:CSI16:1,2010-08-02T03:45:00Z,29.4012,-89.0355,1.0,19.14,11111222 
WAVCIS,ioos:station:WAVCIS:CSI16:1,2010-08-02T04:00:00Z,29.4012,-89.0355,1.0,19.566,11111222 
WAVCIS,ioos:station:WAVCIS:CSI16:1,2010-08-02T04:15:00Z,29.4012,-89.0355,1.0,20.33,11111222 
WAVCIS,ioos:station:WAVCIS:CSI16:1,2010-08-02T04:30:00Z,29.4012,-89.0355,1.0,20.285,11111222 
WAVCIS,ioos:station:WAVCIS:CSI16:1,2010-08-02T04:45:00Z,29.4012,-89.0355,1.0,20.446,11111222 
WAVCIS,ioos:station:WAVCIS:CSI16:1,2010-08-02T05:00:00Z,29.4012,-89.0355,1.0,20.355,11111222 
WAVCIS,ioos:station:WAVCIS:CSI16:1,2010-08-02T05:15:00Z,29.4012,-89.0355,1.0,20.402,11111222 
WAVCIS,ioos:station:WAVCIS:CSI16:1,2010-08-02T05:30:00Z,29.4012,-89.0355,1.0,20.757,11111222 
WAVCIS,ioos:station:WAVCIS:CSI16:1,2010-08-02T05:45:00Z,29.4012,-89.0355,1.0,21.321,11111222 
WAVCIS,ioos:station:WAVCIS:CSI16:1,2010-08-02T06:00:00Z,29.4012,-89.0355,1.0,21.174,11111222 
WAVCIS,ioos:station:WAVCIS:CSI16:1,2010-08-02T06:15:00Z,29.4012,-89.0355,1.0,21.322,11111222 
WAVCIS,ioos:station:WAVCIS:CSI16:1,2010-08-02T06:30:00Z,29.4012,-89.0355,1.0,21.464,11111222 
WAVCIS,ioos:station:WAVCIS:CSI16:1,2010-08-02T06:45:00Z,29.4012,-89.0355,1.0,21.576,11111222 
WAVCIS,ioos:station:WAVCIS:CSI16:1,2010-08-02T07:00:00Z,29.4012,-89.0355,1.0,21.649,11111222 
WAVCIS,ioos:station:WAVCIS:CSI16:1,2010-08-02T07:15:00Z,29.4012,-89.0355,1.0,21.65,11111222 
WAVCIS,ioos:station:WAVCIS:CSI16:1,2010-08-02T07:30:00Z,29.4012,-89.0355,1.0,21.794,11111222 
WAVCIS,ioos:station:WAVCIS:CSI16:1,2010-08-02T07:45:00Z,29.4012,-89.0355,1.0,21.674,11111222 
WAVCIS,ioos:station:WAVCIS:CSI16:1,2010-08-02T08:00:00Z,29.4012,-89.0355,1.0,21.845,11111222 
WAVCIS,ioos:station:WAVCIS:CSI16:1,2010-08-02T08:15:00Z,29.4012,-89.0355,1.0,21.995,11111222 
WAVCIS,ioos:station:WAVCIS:CSI16:1,2010-08-02T08:30:00Z,29.4012,-89.0355,1.0,22.032,11111222 
WAVCIS,ioos:station:WAVCIS:CSI16:1,2010-08-02T08:45:00Z,29.4012,-89.0355,1.0,22.052,11111222 
WAVCIS,ioos:station:WAVCIS:CSI16:1,2010-08-02T09:00:00Z,29.4012,-89.0355,1.0,22.071,11111222 
WAVCIS,ioos:station:WAVCIS:CSI16:1,2010-08-02T09:15:00Z,29.4012,-89.0355,1.0,22.055,11111222 
WAVCIS,ioos:station:WAVCIS:CSI16:1,2010-08-02T09:30:00Z,29.4012,-89.0355,1.0,22.115,11111222 
WAVCIS,ioos:station:WAVCIS:CSI16:1,2010-08-02T09:45:00Z,29.4012,-89.0355,1.0,22.15,11111222 
WAVCIS,ioos:station:WAVCIS:CSI16:1,2010-08-02T10:00:00Z,29.4012,-89.0355,1.0,22.217,11111222 
WAVCIS,ioos:station:WAVCIS:CSI16:1,2010-08-02T10:15:00Z,29.4012,-89.0355,1.0,22.22,11111222 
WAVCIS,ioos:station:WAVCIS:CSI16:1,2010-08-02T10:30:00Z,29.4012,-89.0355,1.0,22.236,11111222 
WAVCIS,ioos:station:WAVCIS:CSI16:1,2010-08-02T10:45:00Z,29.4012,-89.0355,1.0,22.174,11111222 
WAVCIS,ioos:station:WAVCIS:CSI16:1,2010-08-02T11:00:00Z,29.4012,-89.0355,1.0,22.115,11111222 
WAVCIS,ioos:station:WAVCIS:CSI16:1,2010-08-02T11:15:00Z,29.4012,-89.0355,1.0,22.066,11111222 
WAVCIS,ioos:station:WAVCIS:CSI16:1,2010-08-02T11:30:00Z,29.4012,-89.0355,1.0,22.134,11111222 
WAVCIS,ioos:station:WAVCIS:CSI16:1,2010-08-02T11:45:00Z,29.4012,-89.0355,1.0,22.203,11111222 
WAVCIS,ioos:station:WAVCIS:CSI16:1,2010-08-02T12:00:00Z,29.4012,-89.0355,1.0,22.217,11111222 
WAVCIS,ioos:station:WAVCIS:CSI16:1,2010-08-02T12:15:00Z,29.4012,-89.0355,1.0,22.222,11111222 
WAVCIS,ioos:station:WAVCIS:CSI16:1,2010-08-02T12:30:00Z,29.4012,-89.0355,1.0,21.914,11111222 
WAVCIS,ioos:station:WAVCIS:CSI16:1,2010-08-02T12:45:00Z,29.4012,-89.0355,1.0,21.886,11111222 
WAVCIS,ioos:station:WAVCIS:CSI16:1,2010-08-02T13:00:00Z,29.4012,-89.0355,1.0,21.172,11111222 
WAVCIS,ioos:station:WAVCIS:CSI16:1,2010-08-02T13:15:00Z,29.4012,-89.0355,1.0,21.41,11111222 
WAVCIS,ioos:station:WAVCIS:CSI16:1,2010-08-02T13:30:00Z,29.4012,-89.0355,1.0,20.931,11111222 
WAVCIS,ioos:station:WAVCIS:CSI16:1,2010-08-02T13:45:00Z,29.4012,-89.0355,1.0,17.943,11111222 
WAVCIS,ioos:station:WAVCIS:CSI16:1,2010-08-02T14:00:00Z,29.4012,-89.0355,1.0,18.496,11111222 
WAVCIS,ioos:station:WAVCIS:CSI16:1,2010-08-02T14:15:00Z,29.4012,-89.0355,1.0,18.883,11111222 
WAVCIS,ioos:station:WAVCIS:CSI16:1,2010-08-02T14:30:00Z,29.4012,-89.0355,1.0,17.939,11111222 
WAVCIS,ioos:station:WAVCIS:CSI16:1,2010-08-02T14:45:00Z,29.4012,-89.0355,1.0,17.48,11111222 
WAVCIS,ioos:station:WAVCIS:CSI16:1,2010-08-02T15:00:00Z,29.4012,-89.0355,1.0,18.897,11111222 
WAVCIS,ioos:station:WAVCIS:CSI16:1,2010-08-02T15:15:00Z,29.4012,-89.0355,1.0,17.205,11111222 
WAVCIS,ioos:station:WAVCIS:CSI16:1,2010-08-02T15:30:00Z,29.4012,-89.0355,1.0,16.942,11111222 
WAVCIS,ioos:station:WAVCIS:CSI16:1,2010-08-02T15:45:00Z,29.4012,-89.0355,1.0,17.048,11111222 
WAVCIS,ioos:station:WAVCIS:CSI16:1,2010-08-02T16:00:00Z,29.4012,-89.0355,1.0,17.323,11111222 
WAVCIS,ioos:station:WAVCIS:CSI16:1,2010-08-02T16:15:00Z,29.4012,-89.0355,1.0,17.04,11111222 
WAVCIS,ioos:station:WAVCIS:CSI16:1,2010-08-02T16:30:00Z,29.4012,-89.0355,1.0,17.314,11111222 
WAVCIS,ioos:station:WAVCIS:CSI16:1,2010-08-02T16:45:00Z,29.4012,-89.0355,1.0,16.745,11111222 
WAVCIS,ioos:station:WAVCIS:CSI16:1,2010-08-02T17:00:00Z,29.4012,-89.0355,1.0,16.664,11111222 
WAVCIS,ioos:station:WAVCIS:CSI16:1,2010-08-02T17:15:00Z,29.4012,-89.0355,1.0,15.893,11111222 
WAVCIS,ioos:station:WAVCIS:CSI16:1,2010-08-02T17:30:00Z,29.4012,-89.0355,1.0,15.475,11111222 
WAVCIS,ioos:station:WAVCIS:CSI16:1,2010-08-02T17:45:00Z,29.4012,-89.0355,1.0,15.394,11111222 
WAVCIS,ioos:station:WAVCIS:CSI16:1,2010-08-02T18:00:00Z,29.4012,-89.0355,1.0,15.538,11111222 
WAVCIS,ioos:station:WAVCIS:CSI16:1,2010-08-02T18:15:00Z,29.4012,-89.0355,1.0,15.651,11111222 
WAVCIS,ioos:station:WAVCIS:CSI16:1,2010-08-02T18:30:00Z,29.4012,-89.0355,1.0,15.801,11111222 
WAVCIS,ioos:station:WAVCIS:CSI16:1,2010-08-02T18:45:00Z,29.4012,-89.0355,1.0,16.063,11111222 
WAVCIS,ioos:station:WAVCIS:CSI16:1,2010-08-02T19:00:00Z,29.4012,-89.0355,1.0,16.008,11111222 
WAVCIS,ioos:station:WAVCIS:CSI16:1,2010-08-02T19:15:00Z,29.4012,-89.0355,1.0,15.955,11111222 
WAVCIS,ioos:station:WAVCIS:CSI16:1,2010-08-02T19:30:00Z,29.4012,-89.0355,1.0,15.86,11111222 
WAVCIS,ioos:station:WAVCIS:CSI16:1,2010-08-02T19:45:00Z,29.4012,-89.0355,1.0,15.818,11111222 
WAVCIS,ioos:station:WAVCIS:CSI16:1,2010-08-02T20:00:00Z,29.4012,-89.0355,1.0,15.578,11111222 
WAVCIS,ioos:station:WAVCIS:CSI16:1,2010-08-02T20:15:00Z,29.4012,-89.0355,1.0,15.673,11111222 
WAVCIS,ioos:station:WAVCIS:CSI16:1,2010-08-02T20:30:00Z,29.4012,-89.0355,1.0,16.929,11111222 
WAVCIS,ioos:station:WAVCIS:CSI16:1,2010-08-02T20:45:00Z,29.4012,-89.0355,1.0,17.501,11111222 
WAVCIS,ioos:station:WAVCIS:CSI16:1,2010-08-02T21:00:00Z,29.4012,-89.0355,1.0,17.855,11111222 
WAVCIS,ioos:station:WAVCIS:CSI16:1,2010-08-02T21:15:00Z,29.4012,-89.0355,1.0,18.259,11111222 
WAVCIS,ioos:station:WAVCIS:CSI16:1,2010-08-02T21:30:00Z,29.4012,-89.0355,1.0,18.333,11111222 
WAVCIS,ioos:station:WAVCIS:CSI16:1,2010-08-02T21:45:00Z,29.4012,-89.0355,1.0,18.478,11111222 
WAVCIS,ioos:station:WAVCIS:CSI16:1,2010-08-02T22:00:00Z,29.4012,-89.0355,1.0,18.46,11111222 
WAVCIS,ioos:station:WAVCIS:CSI16:1,2010-08-02T22:15:00Z,29.4012,-89.0355,1.0,18.395,11111222 
WAVCIS,ioos:station:WAVCIS:CSI16:1,2010-08-02T22:30:00Z,29.4012,-89.0355,1.0,18.375,11111222 
WAVCIS,ioos:station:WAVCIS:CSI16:1,2010-08-02T22:45:00Z,29.4012,-89.0355,1.0,18.378,11111222 
WAVCIS,ioos:station:WAVCIS:CSI16:1,2010-08-02T23:00:00Z,29.4012,-89.0355,1.0,18.364,11111222 
WAVCIS,ioos:station:WAVCIS:CSI16:1,2010-08-02T23:15:00Z,29.4012,-89.0355,1.0,18.318,11111222 
WAVCIS,ioos:station:WAVCIS:CSI16:1,2010-08-02T23:30:00Z,29.4012,-89.0355,1.0,18.348,11111222 
WAVCIS,ioos:station:WAVCIS:CSI16:1,2010-08-02T23:45:00Z,29.4012,-89.0355,1.0,18.293,11111222 
WAVCIS,ioos:station:WAVCIS:CSI16:1,2010-08-03T00:00:00Z,29.4012,-89.0355,1.0,18.291,11111222 
WAVCIS,ioos:station:WAVCIS:CSI16:1,2010-08-03T00:15:00Z,29.4012,-89.0355,1.0,17.84,11111222 
WAVCIS,ioos:station:WAVCIS:CSI16:1,2010-08-03T00:30:00Z,29.4012,-89.0355,1.0,17.941,11111222 
WAVCIS,ioos:station:WAVCIS:CSI16:1,2010-08-03T00:45:00Z,29.4012,-89.0355,1.0,18.045,11111222 
WAVCIS,ioos:station:WAVCIS:CSI16:1,2010-08-03T01:00:00Z,29.4012,-89.0355,1.0,18.181,11111222 
WAVCIS,ioos:station:WAVCIS:CSI16:1,2010-08-03T01:15:00Z,29.4012,-89.0355,1.0,18.08,11111222 
WAVCIS,ioos:station:WAVCIS:CSI16:1,2010-08-03T01:30:00Z,29.4012,-89.0355,1.0,18.201,11111222 
WAVCIS,ioos:station:WAVCIS:CSI16:1,2010-08-03T01:45:00Z,29.4012,-89.0355,1.0,18.092,11111222 
WAVCIS,ioos:station:WAVCIS:CSI16:1,2010-08-03T02:00:00Z,29.4012,-89.0355,1.0,18.122,11111222 
WAVCIS,ioos:station:WAVCIS:CSI16:1,2010-08-03T02:15:00Z,29.4012,-89.0355,1.0,18.179,11111222 
WAVCIS,ioos:station:WAVCIS:CSI16:1,2010-08-03T02:30:00Z,29.4012,-89.0355,1.0,18.283,11111222 
WAVCIS,ioos:station:WAVCIS:CSI16:1,2010-08-03T02:45:00Z,29.4012,-89.0355,1.0,18.41,11111222 
WAVCIS,ioos:station:WAVCIS:CSI16:1,2010-08-03T03:00:00Z,29.4012,-89.0355,1.0,18.554,11111222 
WAVCIS,ioos:station:WAVCIS:CSI16:1,2010-08-03T03:15:00Z,29.4012,-89.0355,1.0,18.657,11111222 
WAVCIS,ioos:station:WAVCIS:CSI16:1,2010-08-03T03:30:00Z,29.4012,-89.0355,1.0,18.761,11111222 
WAVCIS,ioos:station:WAVCIS:CSI16:1,2010-08-03T03:45:00Z,29.4012,-89.0355,1.0,18.879,11111222 
WAVCIS,ioos:station:WAVCIS:CSI16:1,2010-08-03T04:00:00Z,29.4012,-89.0355,1.0,19.021,11111222 
WAVCIS,ioos:station:WAVCIS:CSI16:1,2010-08-03T04:15:00Z,29.4012,-89.0355,1.0,19.113,11111222 
WAVCIS,ioos:station:WAVCIS:CSI16:1,2010-08-03T04:30:00Z,29.4012,-89.0355,1.0,19.157,11111222 
WAVCIS,ioos:station:WAVCIS:CSI16:1,2010-08-03T04:45:00Z,29.4012,-89.0355,1.0,19.08,11111222 
WAVCIS,ioos:station:WAVCIS:CSI16:1,2010-08-03T05:00:00Z,29.4012,-89.0355,1.0,19.014,11111222 
WAVCIS,ioos:station:WAVCIS:CSI16:1,2010-08-03T05:15:00Z,29.4012,-89.0355,1.0,18.894,11111222 
WAVCIS,ioos:station:WAVCIS:CSI16:1,2010-08-03T05:30:00Z,29.4012,-89.0355,1.0,20.062,11111222 
WAVCIS,ioos:station:WAVCIS:CSI16:1,2010-08-03T05:45:00Z,29.4012,-89.0355,1.0,19.586,11111222 
WAVCIS,ioos:station:WAVCIS:CSI16:1,2010-08-03T06:00:00Z,29.4012,-89.0355,1.0,20.354,11111222 
WAVCIS,ioos:station:WAVCIS:CSI16:1,2010-08-03T06:15:00Z,29.4012,-89.0355,1.0,20.784,11111222 
WAVCIS,ioos:station:WAVCIS:CSI16:1,2010-08-03T06:30:00Z,29.4012,-89.0355,1.0,20.797,11111222 
WAVCIS,ioos:station:WAVCIS:CSI16:1,2010-08-03T06:45:00Z,29.4012,-89.0355,1.0,21.135,11111222 
WAVCIS,ioos:station:WAVCIS:CSI16:1,2010-08-03T07:00:00Z,29.4012,-89.0355,1.0,21.246,11111222 
WAVCIS,ioos:station:WAVCIS:CSI16:1,2010-08-03T07:15:00Z,29.4012,-89.0355,1.0,21.346,11111222 
WAVCIS,ioos:station:WAVCIS:CSI16:1,2010-08-03T07:30:00Z,29.4012,-89.0355,1.0,21.569,11111222 
WAVCIS,ioos:station:WAVCIS:CSI16:1,2010-08-03T07:45:00Z,29.4012,-89.0355,1.0,21.829,11111222 
WAVCIS,ioos:station:WAVCIS:CSI16:1,2010-08-03T08:00:00Z,29.4012,-89.0355,1.0,22.121,11111222 
WAVCIS,ioos:station:WAVCIS:CSI16:1,2010-08-03T08:15:00Z,29.4012,-89.0355,1.0,22.385,11111222 
WAVCIS,ioos:station:WAVCIS:CSI16:1,2010-08-03T08:30:00Z,29.4012,-89.0355,1.0,22.493,11111222 
WAVCIS,ioos:station:WAVCIS:CSI16:1,2010-08-03T08:45:00Z,29.4012,-89.0355,1.0,22.825,11111222 
WAVCIS,ioos:station:WAVCIS:CSI16:1,2010-08-03T09:00:00Z,29.4012,-89.0355,1.0,22.822,11111222 
WAVCIS,ioos:station:WAVCIS:CSI16:1,2010-08-03T09:15:00Z,29.4012,-89.0355,1.0,23.106,11111222 
WAVCIS,ioos:station:WAVCIS:CSI16:1,2010-08-03T09:30:00Z,29.4012,-89.0355,1.0,23.253,11111222 
WAVCIS,ioos:station:WAVCIS:CSI16:1,2010-08-03T09:45:00Z,29.4012,-89.0355,1.0,23.278,11111222 
WAVCIS,ioos:station:WAVCIS:CSI16:1,2010-08-03T10:00:00Z,29.4012,-89.0355,1.0,23.365,11111222 
WAVCIS,ioos:station:WAVCIS:CSI16:1,2010-08-03T10:15:00Z,29.4012,-89.0355,1.0,23.518,11111222 
WAVCIS,ioos:station:WAVCIS:CSI16:1,2010-08-03T10:30:00Z,29.4012,-89.0355,1.0,23.739,11111222 
WAVCIS,ioos:station:WAVCIS:CSI16:1,2010-08-03T10:45:00Z,29.4012,-89.0355,1.0,23.872,11111222 
WAVCIS,ioos:station:WAVCIS:CSI16:1,2010-08-03T11:00:00Z,29.4012,-89.0355,1.0,23.872,11111222 
WAVCIS,ioos:station:WAVCIS:CSI16:1,2010-08-03T11:15:00Z,29.4012,-89.0355,1.0,23.413,11111222 
WAVCIS,ioos:station:WAVCIS:CSI16:1,2010-08-03T11:30:00Z,29.4012,-89.0355,1.0,23.33,11111222 
WAVCIS,ioos:station:WAVCIS:CSI16:1,2010-08-03T11:45:00Z,29.4012,-89.0355,1.0,22.598,11111222 
WAVCIS,ioos:station:WAVCIS:CSI16:1,2010-08-03T12:00:00Z,29.4012,-89.0355,1.0,23.112,11111222 
WAVCIS,ioos:station:WAVCIS:CSI16:1,2010-08-03T12:15:00Z,29.4012,-89.0355,1.0,23.033,11111222 
WAVCIS,ioos:station:WAVCIS:CSI16:1,2010-08-03T12:30:00Z,29.4012,-89.0355,1.0,17.198,11111222 
WAVCIS,ioos:station:WAVCIS:CSI16:1,2010-08-03T12:45:00Z,29.4012,-89.0355,1.0,17.515,11111222 
WAVCIS,ioos:station:WAVCIS:CSI16:1,2010-08-03T13:00:00Z,29.4012,-89.0355,1.0,19.579,11111222 
WAVCIS,ioos:station:WAVCIS:CSI16:1,2010-08-03T13:15:00Z,29.4012,-89.0355,1.0,20.711,11111222 
WAVCIS,ioos:station:WAVCIS:CSI16:1,2010-08-03T13:30:00Z,29.4012,-89.0355,1.0,21.302,11111222 
WAVCIS,ioos:station:WAVCIS:CSI16:1,2010-08-03T13:45:00Z,29.4012,-89.0355,1.0,21.402,11111222 
WAVCIS,ioos:station:WAVCIS:CSI16:1,2010-08-03T14:00:00Z,29.4012,-89.0355,1.0,21.379,11111222 
WAVCIS,ioos:station:WAVCIS:CSI16:1,2010-08-03T14:15:00Z,29.4012,-89.0355,1.0,21.762,11111222 
WAVCIS,ioos:station:WAVCIS:CSI16:1,2010-08-03T14:30:00Z,29.4012,-89.0355,1.0,21.849,11111222 
WAVCIS,ioos:station:WAVCIS:CSI16:1,2010-08-03T14:45:00Z,29.4012,-89.0355,1.0,21.71,11111222 
WAVCIS,ioos:station:WAVCIS:CSI16:1,2010-08-03T15:00:00Z,29.4012,-89.0355,1.0,20.875,11111222 
WAVCIS,ioos:station:WAVCIS:CSI16:1,2010-08-03T15:15:00Z,29.4012,-89.0355,1.0,21.021,11111222 